| time (UTC) | temp F | wind direction | speed knots | gust knots | rain 1hr in | rain 24hr in | rain mn in | humidity % | barometer mb |
| 20260831025506 | 72 | 104 | 0.0 | 0.0 | 0.00 | 0.28 | 0.00 | 97 | 1019.8 |
| 20260831025006 | 72 | 104 | 0.0 | 0.0 | 0.00 | 0.28 | 0.00 | 97 | 1019.8 |
| 20260831024504 | 72 | 330 | 0.0 | 0.0 | 0.00 | 0.28 | 0.00 | 97 | 1019.9 |
| 20260831024005 | 72 | 336 | 0.0 | 0.9 | 0.00 | 0.28 | 0.00 | 97 | 1019.8 |
| 20260831023503 | 73 | 38 | 0.0 | 0.9 | 0.00 | 0.28 | 0.00 | 97 | 1019.8 |
| 20260831023003 | 73 | 22 | 0.9 | 0.9 | 0.00 | 0.28 | 0.00 | 97 | 1019.9 |
| 20260831022503 | 73 | 260 | 0.0 | 0.9 | 0.00 | 0.28 | 0.00 | 97 | 1019.8 |
| 20260831022004 | 73 | 131 | 0.0 | 0.0 | 0.00 | 0.28 | 0.00 | 97 | 1019.8 |
| 20260831021504 | 73 | 131 | 0.0 | 0.0 | 0.00 | 0.28 | 0.00 | 97 | 1019.8 |
| 20260831021003 | 73 | 131 | 0.0 | 0.0 | 0.00 | 0.28 | 0.00 | 97 | 1019.8 |
| 20260831020504 | 73 | 131 | 0.0 | 0.0 | 0.00 | 0.28 | 0.00 | 97 | 1019.7 |
| 20260831020003 | 73 | 131 | 0.0 | 0.0 | 0.00 | 0.28 | 0.00 | 97 | 1019.6 |
| 20260831015503 | 73 | 118 | 0.0 | 0.9 | 0.00 | 0.28 | 0.00 | 97 | 1019.7 |
| 20260831015005 | 73 | 198 | 0.0 | 0.0 | 0.00 | 0.28 | 0.00 | 96 | 1019.7 |
| 20260831014504 | 74 | 198 | 0.0 | 0.0 | 0.00 | 0.28 | 0.00 | 96 | 1019.6 |
| 20260831014003 | 74 | 198 | 0.0 | 0.0 | 0.00 | 0.28 | 0.00 | 96 | 1019.6 |
| 20260831013504 | 74 | 198 | 0.0 | 0.0 | 0.00 | 0.28 | 0.00 | 96 | 1019.6 |
| 20260831013004 | 74 | 198 | 0.0 | 0.0 | 0.00 | 0.28 | 0.00 | 96 | 1019.5 |
| 20260831012503 | 74 | 234 | 0.0 | 0.0 | 0.00 | 0.28 | 0.00 | 96 | 1019.5 |
| 20260831012006 | 74 | 234 | 0.0 | 0.0 | 0.00 | 0.28 | 0.00 | 96 | 1019.5 |
| 20260831011503 | 74 | 207 | 0.0 | 0.9 | 0.00 | 0.28 | 0.00 | 95 | 1019.4 |
| 20260831011003 | 75 | 199 | 0.0 | 0.0 | 0.00 | 0.28 | 0.00 | 95 | 1019.5 |
| 20260831010504 | 75 | 237 | 0.0 | 0.0 | 0.00 | 0.28 | 0.00 | 95 | 1019.4 |
| 20260831010003 | 75 | 293 | 0.0 | 0.9 | 0.00 | 0.28 | 0.00 | 95 | 1019.4 |
| 20260831005004 | 75 | 52 | 0.0 | 0.9 | 0.00 | 0.28 | 0.00 | 95 | 1019.5 |
| 20260831004504 | 75 | 22 | 0.9 | 0.9 | 0.00 | 0.28 | 0.00 | 94 | 1019.5 |
| 20260831004005 | 76 | 237 | 0.0 | 0.9 | 0.00 | 0.28 | 0.00 | 94 | 1019.4 |
| 20260831003503 | 76 | 295 | 0.0 | 0.9 | 0.00 | 0.28 | 0.00 | 93 | 1019.3 |
| 20260831003003 | 76 | 271 | 0.0 | 0.9 | 0.00 | 0.28 | 0.00 | 93 | 1019.3 |
| 20260831002504 | 76 | 285 | 0.0 | 0.9 | 0.00 | 0.28 | 0.00 | 92 | 1019.3 |
| 20260831002007 | 76 | 29 | 0.0 | 0.9 | 0.00 | 0.28 | 0.00 | 92 | 1019.3 |
| 20260831001504 | 77 | 338 | 0.0 | 2.6 | 0.00 | 0.28 | 0.00 | 92 | 1019.2 |
| 20260831001004 | 77 | 285 | 0.0 | 0.9 | 0.00 | 0.28 | 0.00 | 91 | 1019.2 |
| 20260831000504 | 77 | 66 | 0.0 | 0.9 | 0.00 | 0.28 | 0.00 | 90 | 1019.2 |
| 20260831000002 | 78 | 312 | 0.0 | 0.9 | 0.00 | 0.28 | 0.00 | 90 | 1019.2 |
| 20260830235503 | 78 | 305 | 0.0 | 0.9 | 0.00 | 0.28 | 0.00 | 89 | 1019.1 |
| 20260830235003 | 78 | 170 | 0.0 | 0.9 | 0.00 | 0.28 | 0.00 | 88 | 1019.1 |
| 20260830234504 | 79 | 135 | 0.0 | 0.9 | 0.00 | 0.28 | 0.00 | 87 | 1019.2 |
| 20260830234004 | 79 | 133 | 0.0 | 0.9 | 0.00 | 0.28 | 0.00 | 86 | 1019.3 |
| 20260830233503 | 79 | 350 | 0.0 | 0.9 | 0.00 | 0.28 | 0.00 | 85 | 1019.3 |
| 20260830232503 | 80 | 320 | 0.0 | 0.9 | 0.00 | 0.28 | 0.00 | 83 | 1019.4 |
| 20260830232004 | 80 | 335 | 0.0 | 0.9 | 0.00 | 0.28 | 0.00 | 81 | 1019.5 |
| 20260830231503 | 81 | 175 | 0.0 | 0.9 | 0.00 | 0.28 | 0.00 | 81 | 1019.5 |
| 20260830231003 | 81 | 20 | 0.0 | 0.9 | 0.00 | 0.28 | 0.00 | 81 | 1019.4 |
| 20260830230503 | 81 | 47 | 0.0 | 0.9 | 0.00 | 0.28 | 0.00 | 79 | 1019.5 |
| 20260830230004 | 81 | 101 | 0.0 | 0.9 | 0.00 | 0.28 | 0.00 | 80 | 1019.5 |
| 20260830225503 | 82 | 50 | 0.0 | 0.0 | 0.00 | 0.28 | 0.00 | 80 | 1019.5 |
| 20260830225003 | 82 | 350 | 0.0 | 0.9 | 0.00 | 0.28 | 0.00 | 77 | 1019.5 |
| 20260830224004 | 82 | 337 | 0.0 | 0.9 | 0.00 | 0.28 | 0.00 | 78 | 1019.4 |
| 20260830223503 | 82 | 315 | 0.0 | 0.9 | 0.00 | 0.28 | 0.00 | 79 | 1019.4 |
| 20260830223004 | 82 | 328 | 0.0 | 0.9 | 0.00 | 0.28 | 0.00 | 78 | 1019.3 |
| 20260830222503 | 82 | 179 | 0.0 | 0.9 | 0.00 | 0.28 | 0.00 | 76 | 1019.2 |
| 20260830222003 | 83 | 7 | 0.0 | 0.9 | 0.00 | 0.28 | 0.00 | 78 | 1019.2 |
| 20260830221503 | 83 | 231 | 0.0 | 0.9 | 0.00 | 0.28 | 0.00 | 76 | 1019.3 |
| 20260830220503 | 82 | 236 | 0.0 | 0.9 | 0.00 | 0.28 | 0.00 | 75 | 1019.4 |
| 20260830215503 | 83 | 203 | 0.0 | 0.9 | 0.00 | 0.28 | 0.00 | 76 | 1019.3 |
| 20260830215004 | 83 | 327 | 0.0 | 0.9 | 0.00 | 0.28 | 0.00 | 76 | 1019.3 |
| 20260830214505 | 83 | 155 | 0.0 | 1.7 | 0.00 | 0.28 | 0.00 | 76 | 1019.3 |
| 20260830214003 | 83 | 300 | 0.0 | 0.9 | 0.00 | 0.28 | 0.00 | 73 | 1019.4 |
| 20260830213503 | 83 | 308 | 0.0 | 0.9 | 0.00 | 0.28 | 0.00 | 76 | 1019.4 |
| 20260830212004 | 84 | 127 | 0.0 | 0.9 | 0.00 | 0.28 | 0.00 | 74 | 1019.4 |
| 20260830210504 | 84 | 30 | 0.0 | 0.9 | 0.00 | 0.28 | 0.00 | 70 | 1019.2 |
| 20260830210003 | 85 | 101 | 0.0 | 1.7 | 0.00 | 0.28 | 0.00 | 69 | 1019.2 |
| 20260830205504 | 85 | 308 | 0.9 | 1.7 | 0.00 | 0.28 | 0.00 | 68 | 1019.2 |
| 20260830205003 | 85 | 328 | 0.9 | 0.9 | 0.00 | 0.28 | 0.00 | 71 | 1019.3 |
| 20260830204504 | 85 | 320 | 0.0 | 0.9 | 0.00 | 0.28 | 0.00 | 68 | 1019.4 |
| 20260830204003 | 85 | 49 | 0.9 | 0.9 | 0.00 | 0.28 | 0.00 | 72 | 1019.4 |
| 20260830203504 | 85 | 238 | 0.0 | 1.7 | 0.00 | 0.28 | 0.00 | 74 | 1019.5 |
| 20260830203003 | 85 | 340 | 0.9 | 1.7 | 0.00 | 0.28 | 0.00 | 68 | 1019.5 |
| 20260830202505 | 85 | 275 | 0.0 | 0.9 | 0.00 | 0.28 | 0.00 | 70 | 1019.5 |
| 20260830202003 | 84 | 230 | 0.9 | 1.7 | 0.00 | 0.28 | 0.00 | 68 | 1019.5 |
| 20260830201003 | 83 | 187 | 0.9 | 1.7 | 0.00 | 0.28 | 0.00 | 73 | 1019.6 |
| 20260830200508 | 83 | 186 | 1.7 | 2.6 | 0.00 | 0.28 | 0.00 | 72 | 1019.7 |
| 20260830200003 | 83 | 271 | 0.0 | 2.6 | 0.00 | 0.28 | 0.00 | 75 | 1019.8 |
| 20260830195503 | 84 | 219 | 0.0 | 1.7 | 0.00 | 0.28 | 0.00 | 71 | 1019.9 |
| 20260830194503 | 85 | 216 | 0.0 | 1.7 | 0.00 | 0.28 | 0.00 | 72 | 1020.0 |
| 20260830194005 | 85 | 183 | 0.0 | 0.9 | 0.00 | 0.28 | 0.00 | 70 | 1020.1 |
| 20260830193504 | 85 | 30 | 0.0 | 0.9 | 0.00 | 0.28 | 0.00 | 72 | 1020.1 |
| 20260830193004 | 85 | 215 | 0.0 | 1.7 | 0.00 | 0.28 | 0.00 | 72 | 1020.2 |
| 20260830192503 | 85 | 316 | 0.9 | 1.7 | 0.00 | 0.28 | 0.00 | 70 | 1020.2 |
| 20260830192003 | 85 | 55 | 0.9 | 1.7 | 0.00 | 0.40 | 0.00 | 70 | 1020.3 |
| 20260830191005 | 84 | 18 | 0.9 | 1.7 | 0.00 | 0.40 | 0.00 | 70 | 1020.3 |
| 20260830190508 | 84 | 296 | 1.7 | 2.6 | 0.00 | 0.40 | 0.00 | 70 | 1020.3 |
| 20260830190005 | 83 | 271 | 0.9 | 1.7 | 0.00 | 0.40 | 0.00 | 72 | 1020.3 |
| 20260830185507 | 83 | 295 | 0.9 | 1.7 | 0.00 | 0.40 | 0.00 | 74 | 1020.4 |
| 20260830185003 | 83 | 41 | 0.9 | 1.7 | 0.00 | 0.40 | 0.00 | 70 | 1020.5 |
| 20260830184504 | 83 | 178 | 0.9 | 1.7 | 0.00 | 0.40 | 0.00 | 71 | 1020.5 |
| 20260830184004 | 83 | 330 | 0.9 | 1.7 | 0.00 | 0.40 | 0.00 | 72 | 1020.5 |
| 20260830183503 | 83 | 6 | 0.9 | 1.7 | 0.00 | 0.42 | 0.00 | 73 | 1020.7 |
| 20260830183004 | 84 | 142 | 0.0 | 1.7 | 0.00 | 0.50 | 0.00 | 71 | 1020.7 |
| 20260830182003 | 83 | 26 | 0.9 | 1.7 | 0.00 | 0.56 | 0.00 | 70 | 1020.9 |
| 20260830181003 | 83 | 173 | 1.7 | 2.6 | 0.00 | 0.56 | 0.00 | 75 | 1021.0 |
| 20260830180504 | 82 | 160 | 0.9 | 1.7 | 0.00 | 0.56 | 0.00 | 72 | 1021.1 |
| 20260830180003 | 82 | 41 | 0.9 | 1.7 | 0.00 | 0.56 | 0.00 | 74 | 1021.2 |
| 20260830175503 | 83 | 30 | 0.9 | 2.6 | 0.00 | 0.56 | 0.00 | 73 | 1021.2 |
| 20260830175004 | 83 | 246 | 0.9 | 2.6 | 0.00 | 0.56 | 0.00 | 72 | 1021.2 |
| 20260830174503 | 82 | 317 | 0.9 | 1.7 | 0.00 | 0.56 | 0.00 | 73 | 1021.1 |
| 20260830174003 | 82 | 70 | 0.0 | 1.7 | 0.00 | 0.56 | 0.00 | 77 | 1021.1 |
| 20260830173504 | 82 | 169 | 1.7 | 2.6 | 0.00 | 0.56 | 0.00 | 74 | 1021.1 |
| 20260830173003 | 82 | 302 | 0.9 | 2.6 | 0.00 | 0.56 | 0.00 | 74 | 1021.2 |
| 20260830172503 | 81 | 38 | 0.0 | 0.9 | 0.00 | 0.56 | 0.00 | 76 | 1021.2 |
| 20260830172004 | 81 | 249 | 0.0 | 1.7 | 0.00 | 0.56 | 0.00 | 75 | 1021.3 |
| 20260830171504 | 81 | 315 | 0.0 | 1.7 | 0.00 | 0.56 | 0.00 | 78 | 1021.3 |
| 20260830171003 | 81 | 313 | 0.9 | 2.6 | 0.00 | 0.56 | 0.00 | 79 | 1021.4 |
| 20260830170503 | 81 | 184 | 0.9 | 2.6 | 0.00 | 0.56 | 0.00 | 77 | 1021.5 |
| 20260830170003 | 80 | 337 | 0.0 | 0.9 | 0.00 | 0.56 | 0.00 | 78 | 1021.6 |
| 20260830165505 | 80 | 22 | 0.0 | 1.7 | 0.00 | 0.56 | 0.00 | 79 | 1021.6 |
| 20260830165003 | 80 | 12 | 0.0 | 0.9 | 0.00 | 0.56 | 0.00 | 80 | 1021.7 |
| 20260830164503 | 80 | 354 | 0.9 | 1.7 | 0.00 | 0.56 | 0.00 | 78 | 1021.7 |
| 20260830164004 | 80 | 325 | 0.9 | 1.7 | 0.00 | 0.56 | 0.00 | 79 | 1021.8 |
| 20260830163503 | 80 | 167 | 0.0 | 1.7 | 0.00 | 0.56 | 0.00 | 79 | 1021.8 |
| 20260830163007 | 81 | 148 | 0.0 | 1.7 | 0.00 | 0.56 | 0.00 | 78 | 1021.8 |
| 20260830162504 | 81 | 23 | 0.0 | 0.9 | 0.00 | 0.56 | 0.00 | 77 | 1021.8 |
| 20260830162005 | 80 | 350 | 0.0 | 0.9 | 0.00 | 0.56 | 0.00 | 79 | 1021.8 |
| 20260830161503 | 81 | 28 | 0.9 | 1.7 | 0.00 | 0.56 | 0.00 | 78 | 1021.8 |
| 20260830161004 | 80 | 145 | 0.0 | 1.7 | 0.00 | 0.56 | 0.00 | 79 | 1021.8 |
| 20260830160004 | 79 | 203 | 0.0 | 0.9 | 0.00 | 0.56 | 0.00 | 80 | 1021.9 |
| 20260830155504 | 79 | 282 | 0.9 | 1.7 | 0.00 | 0.56 | 0.00 | 81 | 1022.0 |
| 20260830155004 | 79 | 27 | 0.0 | 0.9 | 0.00 | 0.56 | 0.00 | 79 | 1022.0 |
| 20260830154504 | 79 | 341 | 0.9 | 2.6 | 0.00 | 0.56 | 0.00 | 81 | 1022.0 |
| 20260830154003 | 79 | 184 | 0.9 | 1.7 | 0.00 | 0.56 | 0.00 | 80 | 1022.0 |
| 20260830153504 | 79 | 210 | 0.0 | 2.6 | 0.00 | 0.56 | 0.00 | 82 | 1022.0 |
| 20260830153003 | 78 | 328 | 0.9 | 2.6 | 0.00 | 0.56 | 0.00 | 83 | 1022.1 |
| 20260830152504 | 78 | 41 | 0.0 | 1.7 | 0.00 | 0.56 | 0.00 | 86 | 1022.1 |
| 20260830152003 | 78 | 114 | 0.0 | 0.9 | 0.00 | 0.56 | 0.00 | 83 | 1022.1 |
| 20260830151505 | 77 | 291 | 0.9 | 1.7 | 0.00 | 0.56 | 0.00 | 84 | 1022.2 |
| 20260830151003 | 77 | 155 | 0.0 | 0.9 | 0.00 | 0.56 | 0.00 | 85 | 1022.3 |
| 20260830150503 | 77 | 264 | 0.9 | 1.7 | 0.00 | 0.56 | 0.00 | 84 | 1022.3 |
| 20260830145503 | 76 | 181 | 0.0 | 0.0 | 0.00 | 0.56 | 0.00 | 88 | 1022.3 |
| 20260830145005 | 76 | 57 | 0.0 | 0.0 | 0.00 | 0.56 | 0.00 | 89 | 1022.4 |
| 20260830143503 | 76 | 169 | 0.0 | 0.9 | 0.00 | 0.56 | 0.00 | 89 | 1022.5 |
| 20260830143003 | 76 | 57 | 0.0 | 0.9 | 0.00 | 0.56 | 0.00 | 87 | 1022.5 |
| 20260830142004 | 75 | 55 | 0.0 | 0.9 | 0.00 | 0.56 | 0.00 | 88 | 1022.6 |
| 20260830141503 | 75 | 69 | 0.0 | 0.9 | 0.00 | 0.56 | 0.00 | 89 | 1022.6 |
| 20260830140503 | 74 | 299 | 0.0 | 0.9 | 0.00 | 0.56 | 0.00 | 92 | 1022.6 |
| 20260830140003 | 74 | 299 | 0.9 | 1.7 | 0.00 | 0.56 | 0.00 | 91 | 1022.7 |
| 20260830135003 | 74 | 254 | 0.0 | 0.9 | 0.00 | 0.56 | 0.00 | 94 | 1022.7 |
| 20260830134504 | 74 | 169 | 0.0 | 1.7 | 0.00 | 0.56 | 0.00 | 93 | 1022.7 |
| 20260830134004 | 74 | 11 | 0.0 | 1.7 | 0.00 | 0.56 | 0.00 | 94 | 1022.7 |
| 20260830133003 | 73 | 328 | 0.0 | 0.9 | 0.00 | 0.56 | 0.00 | 96 | 1022.6 |
| 20260830132503 | 73 | 333 | 0.0 | 0.9 | 0.00 | 0.56 | 0.00 | 97 | 1022.6 |
| 20260830131503 | 72 | 356 | 0.0 | 0.9 | 0.00 | 0.56 | 0.00 | 98 | 1022.6 |
| 20260830130504 | 72 | 51 | 0.0 | 0.9 | 0.00 | 0.56 | 0.00 | 99 | 1022.6 |
| 20260830130002 | 72 | 68 | 0.0 | 0.9 | 0.00 | 0.56 | 0.00 | 99 | 1022.5 |
| 20260830125505 | 72 | 54 | 0.0 | 1.7 | 0.00 | 0.56 | 0.00 | 99 | 1022.5 |
| 20260830125005 | 72 | 171 | 0.9 | 0.9 | 0.00 | 0.56 | 0.00 | 99 | 1022.5 |
| 20260830123503 | 72 | 166 | 0.9 | 1.7 | 0.00 | 0.56 | 0.00 | 100 | 1022.5 |
| 20260830123004 | 72 | 180 | 0.0 | 0.9 | 0.00 | 0.56 | 0.00 | 100 | 1022.4 |
| 20260830122504 | 72 | 28 | 0.0 | 0.0 | 0.00 | 0.56 | 0.00 | 100 | 1022.4 |
| 20260830122003 | 71 | 21 | 0.9 | 0.9 | 0.00 | 0.56 | 0.00 | 100 | 1022.4 |
| 20260830121503 | 71 | 79 | 0.0 | 0.0 | 0.00 | 0.56 | 0.00 | 100 | 1022.4 |
| 20260830121004 | 71 | 79 | 0.0 | 0.9 | 0.00 | 0.56 | 0.00 | 100 | 1022.4 |
| 20260830120503 | 71 | 352 | 0.0 | 0.0 | 0.00 | 0.56 | 0.00 | 100 | 1022.5 |
| 20260830120003 | 71 | 352 | 0.0 | 0.0 | 0.00 | 0.56 | 0.00 | 99 | 1022.4 |
| 20260830115504 | 71 | 341 | 0.9 | 1.7 | 0.00 | 0.56 | 0.00 | 99 | 1022.3 |
| 20260830114503 | 71 | 24 | 0.0 | 1.7 | 0.00 | 0.56 | 0.00 | 100 | 1022.3 |
| 20260830114003 | 71 | 157 | 0.9 | 1.7 | 0.00 | 0.56 | 0.00 | 99 | 1022.3 |
| 20260830113003 | 71 | 88 | 0.9 | 0.9 | 0.00 | 0.56 | 0.00 | 99 | 1022.2 |
| 20260830112504 | 71 | 96 | 0.0 | 0.9 | 0.00 | 0.56 | 0.00 | 99 | 1022.3 |
| 20260830111503 | 71 | 307 | 0.0 | 0.0 | 0.00 | 0.56 | 0.00 | 99 | 1022.3 |
| 20260830111003 | 71 | 307 | 0.9 | 0.9 | 0.00 | 0.56 | 0.00 | 99 | 1022.3 |
| 20260830105504 | 71 | 109 | 0.0 | 0.0 | 0.00 | 0.56 | 0.00 | 99 | 1022.1 |
| 20260830105003 | 71 | 210 | 0.9 | 0.9 | 0.00 | 0.56 | 0.00 | 99 | 1022.0 |
| 20260830104503 | 71 | 149 | 0.0 | 0.9 | 0.00 | 0.56 | 0.00 | 99 | 1021.9 |
| 20260830103503 | 71 | 102 | 0.0 | 0.9 | 0.00 | 0.56 | 0.00 | 99 | 1021.8 |
| 20260830103004 | 71 | 259 | 0.0 | 0.9 | 0.00 | 0.56 | 0.00 | 99 | 1021.7 |
| 20260830102503 | 71 | 245 | 0.0 | 0.9 | 0.00 | 0.56 | 0.00 | 99 | 1021.7 |
| 20260830102003 | 71 | 72 | 0.0 | 0.9 | 0.00 | 0.56 | 0.00 | 99 | 1021.6 |
| 20260830101003 | 71 | 240 | 0.0 | 0.9 | 0.00 | 0.56 | 0.00 | 99 | 1021.5 |
| 20260830100503 | 71 | 108 | 0.0 | 0.0 | 0.00 | 0.56 | 0.00 | 99 | 1021.5 |
| 20260830100003 | 71 | 108 | 0.0 | 0.9 | 0.00 | 0.56 | 0.00 | 99 | 1021.4 |
| 20260830095503 | 71 | 94 | 0.0 | 0.9 | 0.00 | 0.56 | 0.00 | 99 | 1021.5 |
| 20260830095004 | 71 | 200 | 0.0 | 0.0 | 0.00 | 0.56 | 0.00 | 99 | 1021.5 |
| 20260830094503 | 71 | 200 | 0.0 | 0.0 | 0.00 | 0.56 | 0.00 | 99 | 1021.4 |
| 20260830094003 | 71 | 178 | 0.9 | 0.9 | 0.00 | 0.56 | 0.00 | 99 | 1021.4 |
| 20260830093503 | 71 | 179 | 0.0 | 0.9 | 0.00 | 0.56 | 0.00 | 99 | 1021.4 |
| 20260830093004 | 71 | 108 | 0.0 | 0.0 | 0.00 | 0.56 | 0.00 | 99 | 1021.4 |
| 20260830092504 | 71 | 193 | 0.9 | 0.9 | 0.00 | 0.56 | 0.00 | 99 | 1021.5 |
| 20260830092004 | 71 | 204 | 0.0 | 0.0 | 0.00 | 0.56 | 0.00 | 99 | 1021.4 |
| 20260830091503 | 71 | 207 | 0.0 | 0.0 | 0.00 | 0.56 | 0.00 | 99 | 1021.4 |
| 20260830091004 | 71 | 208 | 0.0 | 0.0 | 0.00 | 0.56 | 0.00 | 99 | 1021.4 |
| 20260830090503 | 71 | 208 | 0.0 | 0.0 | 0.00 | 0.56 | 0.00 | 99 | 1021.4 |
| 20260830085505 | 71 | 211 | 0.0 | 0.0 | 0.00 | 0.56 | 0.00 | 99 | 1021.5 |
| 20260830085003 | 71 | 211 | 0.0 | 0.9 | 0.00 | 0.56 | 0.00 | 99 | 1021.6 |
| 20260830084503 | 71 | 100 | 0.0 | 0.9 | 0.00 | 0.56 | 0.00 | 99 | 1021.6 |
| 20260830084003 | 70 | 175 | 0.0 | 0.9 | 0.00 | 0.56 | 0.00 | 99 | 1021.5 |
| 20260830083503 | 70 | 103 | 0.0 | 0.9 | 0.00 | 0.56 | 0.00 | 99 | 1021.5 |
| 20260830083004 | 70 | 139 | 0.0 | 0.0 | 0.00 | 0.56 | 0.00 | 99 | 1021.5 |
| 20260830082504 | 70 | 139 | 0.0 | 0.9 | 0.00 | 0.56 | 0.00 | 99 | 1021.5 |
| 20260830082003 | 70 | 347 | 0.0 | 0.0 | 0.00 | 0.56 | 0.00 | 99 | 1021.4 |
| 20260830081503 | 70 | 347 | 0.0 | 0.0 | 0.00 | 0.56 | 0.00 | 99 | 1021.4 |
| 20260830080504 | 70 | 87 | 0.0 | 0.0 | 0.00 | 0.56 | 0.00 | 99 | 1021.5 |
| 20260830075503 | 70 | 87 | 0.0 | 0.0 | 0.00 | 0.56 | 0.00 | 99 | 1021.5 |
| 20260830075004 | 70 | 87 | 0.0 | 0.0 | 0.00 | 0.56 | 0.00 | 99 | 1021.5 |
| 20260830074503 | 70 | 87 | 0.0 | 0.0 | 0.00 | 0.56 | 0.00 | 99 | 1021.6 |
| 20260830074003 | 70 | 66 | 0.0 | 0.9 | 0.00 | 0.56 | 0.00 | 99 | 1021.6 |
| 20260830073503 | 70 | 186 | 0.0 | 0.0 | 0.00 | 0.56 | 0.00 | 99 | 1021.6 |
| 20260830073003 | 70 | 186 | 0.0 | 0.0 | 0.00 | 0.56 | 0.00 | 99 | 1021.6 |
| 20260830072504 | 70 | 186 | 0.0 | 0.0 | 0.00 | 0.56 | 0.00 | 99 | 1021.6 |
| 20260830072003 | 70 | 186 | 0.0 | 0.0 | 0.00 | 0.56 | 0.00 | 99 | 1021.5 |
| 20260830071003 | 70 | 185 | 0.9 | 0.9 | 0.00 | 0.56 | 0.00 | 99 | 1021.6 |
| 20260830070503 | 70 | 175 | 0.9 | 0.9 | 0.00 | 0.56 | 0.00 | 99 | 1021.6 |
| 20260830070003 | 70 | 225 | 0.0 | 0.0 | 0.00 | 0.56 | 0.00 | 99 | 1021.6 |
| 20260830065504 | 70 | 225 | 0.0 | 0.0 | 0.00 | 0.56 | 0.00 | 99 | 1021.5 |
| 20260830065003 | 70 | 225 | 0.0 | 0.0 | 0.00 | 0.56 | 0.00 | 99 | 1021.6 |
| 20260830064503 | 70 | 225 | 0.0 | 0.0 | 0.00 | 0.56 | 0.00 | 99 | 1021.6 |
| 20260830064005 | 70 | 225 | 0.0 | 0.9 | 0.00 | 0.56 | 0.00 | 99 | 1021.6 |
| 20260830063506 | 70 | 216 | 0.0 | 0.9 | 0.00 | 0.56 | 0.00 | 99 | 1021.6 |
| 20260830063003 | 70 | 204 | 0.0 | 0.0 | 0.00 | 0.56 | 0.00 | 99 | 1021.7 |
| 20260830062503 | 70 | 204 | 0.0 | 0.9 | 0.00 | 0.56 | 0.00 | 99 | 1021.7 |
| 20260830062004 | 70 | 188 | 0.0 | 0.9 | 0.00 | 0.56 | 0.00 | 99 | 1021.7 |
| 20260830061003 | 71 | 281 | 0.0 | 0.0 | 0.00 | 0.56 | 0.00 | 99 | 1021.7 |
| 20260830060003 | 71 | 347 | 0.0 | 0.0 | 0.00 | 0.56 | 0.00 | 99 | 1021.7 |
| 20260830055003 | 71 | 347 | 0.0 | 0.9 | 0.00 | 0.56 | 0.00 | 99 | 1021.8 |
| 20260830054503 | 71 | 69 | 0.0 | 0.0 | 0.00 | 0.56 | 0.00 | 99 | 1021.9 |
| 20260830054003 | 71 | 69 | 0.0 | 0.9 | 0.00 | 0.56 | 0.00 | 99 | 1022.0 |
| 20260830053503 | 71 | 32 | 0.9 | 0.9 | 0.00 | 0.56 | 0.00 | 98 | 1022.0 |
| 20260830053004 | 71 | 2 | 0.0 | 0.9 | 0.00 | 0.56 | 0.00 | 99 | 1022.1 |
| 20260830052004 | 71 | 167 | 0.0 | 0.0 | 0.00 | 0.56 | 0.00 | 98 | 1022.1 |
| 20260830051509 | 71 | 167 | 0.0 | 0.0 | 0.00 | 0.56 | 0.00 | 98 | 1022.1 |
| 20260830051003 | 71 | 167 | 0.0 | 0.0 | 0.00 | 0.56 | 0.00 | 98 | 1022.1 |
| 20260830045004 | 71 | 167 | 0.9 | 0.9 | 0.28 | 0.56 | 0.00 | 98 | 1022.2 |
| 20260830044503 | 71 | 210 | 0.0 | 0.0 | 0.28 | 0.56 | 0.00 | 98 | 1022.2 |
| 20260830044004 | 71 | 217 | 0.0 | 0.9 | 0.28 | 0.56 | 0.00 | 98 | 1022.2 |
| 20260830043504 | 71 | 42 | 0.0 | 0.9 | 0.28 | 0.56 | 0.00 | 98 | 1022.2 |
| 20260830043003 | 71 | 97 | 0.0 | 0.0 | 0.28 | 0.56 | 0.00 | 98 | 1022.2 |
| 20260830042503 | 71 | 97 | 0.0 | 0.0 | 0.28 | 0.56 | 0.00 | 98 | 1022.2 |
| 20260830042004 | 71 | 97 | 0.0 | 0.0 | 0.28 | 0.56 | 0.00 | 98 | 1022.2 |
| 20260830041503 | 71 | 137 | 0.0 | 0.9 | 0.28 | 0.56 | 0.00 | 98 | 1022.3 |
| 20260830041004 | 72 | 73 | 0.0 | 0.0 | 0.28 | 0.56 | 0.00 | 98 | 1022.3 |
| 20260830040504 | 72 | 146 | 0.0 | 0.0 | 0.28 | 0.56 | 0.00 | 98 | 1022.3 |
| 20260830040003 | 72 | 178 | 0.0 | 0.9 | 0.00 | 0.29 | 0.00 | 98 | 1022.3 |
| 20260830035505 | 72 | 95 | 0.0 | 0.0 | 0.00 | 0.29 | 0.28 | 98 | 1022.3 |
| 20260830035004 | 72 | 95 | 0.0 | 0.9 | 0.00 | 0.29 | 0.28 | 98 | 1022.4 |
| 20260830034503 | 72 | 94 | 0.0 | 0.9 | 0.00 | 0.29 | 0.28 | 98 | 1022.3 |
| 20260830033504 | 72 | 162 | 0.0 | 0.0 | 0.00 | 0.29 | 0.28 | 98 | 1022.3 |
| 20260830032503 | 72 | 152 | 0.0 | 0.9 | 0.00 | 0.29 | 0.28 | 98 | 1022.1 |
| 20260830032003 | 72 | 197 | 0.0 | 0.0 | 0.00 | 0.29 | 0.28 | 98 | 1022.1 |
| 20260830031503 | 72 | 114 | 0.0 | 0.0 | 0.00 | 0.29 | 0.28 | 98 | 1022.0 |
| 20260830031003 | 72 | 114 | 0.0 | 0.0 | 0.00 | 0.29 | 0.28 | 98 | 1021.9 |
| 20260830030503 | 72 | 206 | 0.0 | 0.0 | 0.00 | 0.29 | 0.28 | 98 | 1021.9 |
| 20260830030004 | 72 | 169 | 0.0 | 0.0 | 0.00 | 0.29 | 0.28 | 97 | 1021.9 |